When you browse on this site, cookies collect data to enhance your experience and personalize the content and advertising you see.
Visit our Privacy Policy to learn more. By continuing to use the site, you agree to this use of cookies and data.
  • In Germany
  • List of Countries
  • For 7 days
  • Water Temperature
  • Satellite Maps
  • Weather Map
  • Weather Widgets
  • user-avatar
    Login

    Hourly Weather Neuquén

    Today, 19 June, Wednesday

    Time Temperature Precipitation Wind Pressure Humidity
    00:00 +7°C° 0 mm 13 mps 734 mmHg 55%
    01:00 +7°C° 0 mm 13 mps 735 mmHg 56%
    02:00 +7°C° 0 mm 12 mps 735 mmHg 56%
    03:00 +7°C° 0 mm 11 mps 735 mmHg 57%
    04:00 +7°C° 0 mm 10 mps 735 mmHg 58%
    05:00 +6°C° 0 mm 9 mps 736 mmHg 59%
    06:00 +6°C° 0 mm 7 mps 736 mmHg 61%
    07:00 +7°C° 0 mm 6 mps 736 mmHg 62%
    08:00 +8°C° 0 mm 6 mps 737 mmHg 58%
    09:00 +10°C° 0 mm 6 mps 737 mmHg 53%
    10:00 +11°C° 0 mm 6 mps 738 mmHg 49%
    11:00 +13°C° 0 mm 5 mps 737 mmHg 47%
    12:00 +13°C° 0 mm 4 mps 737 mmHg 45%
    13:00 +14°C° 0 mm 3 mps 737 mmHg 43%
    14:00 +13°C° 0 mm 3 mps 736 mmHg 47%
    15:00 +14°C° 0 mm 2 mps 736 mmHg 51%
    16:00 +13°C° 0 mm 2 mps 736 mmHg 55%
    17:00 +12°C° 0 mm 2 mps 736 mmHg 57%
    18:00 +11°C° 0 mm 1 mps 736 mmHg 60%
    19:00 +11°C° 0 mm 1 mps 736 mmHg 62%
    20:00 +10°C° 0 mm 1 mps 736 mmHg 62%
    21:00 +10°C° 0 mm 1 mps 736 mmHg 62%
    22:00 +10°C° 0 mm 1 mps 736 mmHg 62%
    23:00 +10°C° 0 mm 1 mps 736 mmHg 63%

    Tomorrow, 20 June, Thursday

    Time Temperature Precipitation Wind Pressure Humidity
    00:00 +10°C° 0 mm 1 mps 735 mmHg 63%
    01:00 +9°C° 0 mm 2 mps 735 mmHg 63%
    02:00 +8°C° 0 mm 2 mps 735 mmHg 63%
    03:00 +8°C° 0 mm 2 mps 734 mmHg 64%
    04:00 +8°C° 0 mm 2 mps 734 mmHg 64%
    05:00 +8°C° 0 mm 3 mps 733 mmHg 63%
    06:00 +7°C° 0 mm 3 mps 733 mmHg 62%
    07:00 +6°C° 0 mm 4 mps 733 mmHg 60%
    08:00 +7°C° 0 mm 4 mps 733 mmHg 56%
    09:00 +8°C° 0 mm 4 mps 733 mmHg 52%
    10:00 +10°C° 0 mm 4 mps 732 mmHg 48%
    11:00 +11°C° 0 mm 4 mps 731 mmHg 46%
    12:00 +12°C° 0 mm 3 mps 731 mmHg 43%
    13:00 +12°C° 0 mm 3 mps 730 mmHg 41%
    14:00 +12°C° 0 mm 3 mps 730 mmHg 44%
    15:00 +12°C° 0 mm 2 mps 729 mmHg 47%
    16:00 +10°C° 0 mm 2 mps 729 mmHg 50%
    17:00 +10°C° 0 mm 2 mps 729 mmHg 51%
    18:00 +9°C° 0 mm 2 mps 729 mmHg 52%
    19:00 +9°C° 0 mm 2 mps 729 mmHg 53%
    20:00 +8°C° 0 mm 2 mps 729 mmHg 53%
    21:00 +8°C° 0 mm 2 mps 730 mmHg 54%
    22:00 +8°C° 0 mm 2 mps 730 mmHg 54%
    23:00 +8°C° 0 mm 2 mps 730 mmHg 53%

    Day after tomorrow, 21 June, Friday

    Time Temperature Precipitation Wind Pressure Humidity
    00:00 +8°C° 0 mm 3 mps 730 mmHg 52%
    01:00 +8°C° 0 mm 3 mps 730 mmHg 51%
    02:00 +8°C° 0 mm 3 mps 730 mmHg 50%
    03:00 +8°C° 0 mm 2 mps 731 mmHg 50%
    04:00 +8°C° 0 mm 2 mps 731 mmHg 49%
    05:00 +7°C° 0 mm 2 mps 731 mmHg 49%
    06:00 +7°C° 0 mm 2 mps 732 mmHg 49%
    07:00 +7°C° 0 mm 2 mps 732 mmHg 48%
    08:00 +9°C° 0 mm 2 mps 733 mmHg 44%
    09:00 +12°C° 0 mm 2 mps 733 mmHg 40%
    10:00 +13°C° 0 mm 2 mps 734 mmHg 36%
    11:00 +14°C° 0 mm 2 mps 734 mmHg 33%
    12:00 +14°C° 0 mm 3 mps 733 mmHg 30%
    13:00 +17°C° 0 mm 3 mps 733 mmHg 27%
    14:00 +16°C° 0 mm 2 mps 733 mmHg 30%
    15:00 +15°C° 0 mm 2 mps 733 mmHg 33%
    16:00 +14°C° 0 mm 1 mps 733 mmHg 37%
    17:00 +13°C° 0 mm 1 mps 734 mmHg 37%
    18:00 +12°C° 0 mm 1 mps 734 mmHg 38%
    19:00 +11°C° 0 mm 1 mps 734 mmHg 39%
    20:00 +11°C° 0 mm 1 mps 734 mmHg 39%
    21:00 +11°C° 0 mm 1 mps 735 mmHg 40%
    22:00 +10°C° 0 mm 1 mps 735 mmHg 41%
    23:00 +10°C° 0 mm 1 mps 735 mmHg 44%

    22 June, Saturday

    Time Temperature Precipitation Wind Pressure Humidity
    00:00 +9°C° 0 mm 1 mps 735 mmHg 48%
    01:00 +9°C° 0 mm 1 mps 735 mmHg 51%
    02:00 +9°C° 0 mm 1 mps 735 mmHg 53%
    03:00 +7°C° 0 mm 0 mps 735 mmHg 54%
    04:00 +7°C° 0 mm 0 mps 735 mmHg 55%
    05:00 +7°C° 0 mm 0 mps 735 mmHg 56%
    06:00 +7°C° 0 mm 0 mps 735 mmHg 58%
    07:00 +7°C° 0 mm 0 mps 735 mmHg 59%
    08:00 +10°C° 0 mm 1 mps 735 mmHg 54%
    09:00 +12°C° 0 mm 1 mps 735 mmHg 49%
    10:00 +13°C° 0 mm 1 mps 735 mmHg 45%
    11:00 +14°C° 0 mm 1 mps 735 mmHg 43%
    12:00 +14°C° 0 mm 1 mps 734 mmHg 42%
    13:00 +15°C° 0 mm 2 mps 733 mmHg 41%
    14:00 +14°C° 0 mm 1 mps 733 mmHg 45%
    15:00 +13°C° 0 mm 1 mps 733 mmHg 50%
    16:00 +12°C° 0 mm 1 mps 732 mmHg 54%
    17:00 +12°C° 0 mm 1 mps 732 mmHg 55%
    18:00 +11°C° 0 mm 1 mps 732 mmHg 55%
    19:00 +10°C° 0 mm 1 mps 732 mmHg 56%
    20:00 +10°C° 0 mm 1 mps 732 mmHg 56%
    21:00 +10°C° 0 mm 1 mps 732 mmHg 57%
    22:00 +9°C° 0 mm 2 mps 731 mmHg 57%
    23:00 +8°C° 0 mm 2 mps 731 mmHg 58%

    23 June, Sunday

    Time Temperature Precipitation Wind Pressure Humidity
    00:00 +8°C° 0 mm 2 mps 731 mmHg 59%
    01:00 +8°C° 0 mm 2 mps 730 mmHg 60%
    02:00 +8°C° 0 mm 2 mps 730 mmHg 58%
    03:00 +7°C° 0 mm 3 mps 730 mmHg 57%
    04:00 +7°C° 0 mm 3 mps 730 mmHg 55%
    05:00 +7°C° 0 mm 3 mps 730 mmHg 53%
    06:00 +7°C° 0 mm 4 mps 730 mmHg 51%
    07:00 +7°C° 0 mm 4 mps 730 mmHg 49%
    08:00 +9°C° 0 mm 6 mps 730 mmHg 48%
    09:00 +11°C° 0 mm 8 mps 730 mmHg 46%
    10:00 +13°C° 0 mm 9 mps 730 mmHg 45%
    11:00 +13°C° 0 mm 9 mps 730 mmHg 43%
    12:00 +15°C° 0 mm 8 mps 729 mmHg 40%
    13:00 +16°C° 0 mm 7 mps 729 mmHg 38%
    14:00 +15°C° 0 mm 6 mps 728 mmHg 40%
    15:00 +14°C° 0 mm 6 mps 728 mmHg 43%
    16:00 +13°C° 0 mm 5 mps 728 mmHg 45%
    17:00 +12°C° 0 mm 5 mps 728 mmHg 45%
    18:00 +12°C° 0 mm 5 mps 728 mmHg 44%
    19:00 +10°C° 0 mm 5 mps 728 mmHg 44%
    20:00 +10°C° 0 mm 5 mps 728 mmHg 45%
    21:00 +9°C° 0 mm 5 mps 728 mmHg 47%
    22:00 +8°C° 0 mm 5 mps 728 mmHg 48%
    23:00 +8°C° 0 mm 5 mps 728 mmHg 50%

    24 June, Monday

    Time Temperature Precipitation Wind Pressure Humidity
    00:00 +8°C° 0 mm 4 mps 727 mmHg 51%
    01:00 +7°C° 0 mm 4 mps 727 mmHg 52%
    02:00 +7°C° 0 mm 4 mps 727 mmHg 52%
    03:00 +7°C° 0 mm 4 mps 727 mmHg 52%
    04:00 +7°C° 0 mm 4 mps 727 mmHg 52%
    05:00 +7°C° 0 mm 4 mps 727 mmHg 54%
    06:00 +6°C° 0 mm 4 mps 728 mmHg 56%
    07:00 +6°C° 0 mm 4 mps 728 mmHg 57%
    08:00 +7°C° 0 mm 6 mps 729 mmHg 51%
    09:00 +6°C° 0 mm 7 mps 729 mmHg 44%
    10:00 +7°C° 0 mm 8 mps 729 mmHg 37%
    11:00 +8°C° 0 mm 7 mps 729 mmHg 35%
    12:00 +8°C° 0 mm 7 mps 729 mmHg 33%
    13:00 +9°C° 0 mm 6 mps 729 mmHg 30%
    14:00 +8°C° 0 mm 5 mps 729 mmHg 32%
    15:00 +8°C° 0 mm 4 mps 729 mmHg 34%
    16:00 +8°C° 0 mm 3 mps 729 mmHg 36%
    17:00 +7°C° 0 mm 3 mps 729 mmHg 40%
    18:00 +7°C° 0 mm 2 mps 729 mmHg 44%
    19:00 +7°C° 0 mm 1 mps 729 mmHg 48%
    20:00 +7°C° 0 mm 1 mps 729 mmHg 48%
    21:00 +6°C° 0 mm 2 mps 729 mmHg 48%
    22:00 +6°C° 0 mm 2 mps 729 mmHg 48%
    23:00 +5°C° 0 mm 3 mps 729 mmHg 48%
    Show more